Weather History for PAKT - February, 2014

Change the Weather History Date:

Friday, February 14, 2014

  Actual Average Record
Temperature  
Mean Temperature 37 °F -  
Max Temperature 39 °F 42 °F 58 °F (1963)
Min Temperature 35 °F 30 °F 3 °F (1956)
Degree Days  
Heating Degree Days 28    
Moisture  
Dew Point 35 °F    
Average Humidity 88    
Maximum Humidity 100    
Minimum Humidity 79    
Precipitation  
Precipitation 0.29 in - - ()
Sea Level Pressure  
Sea Level Pressure 29.31 in    
Wind  
Wind Speed 20 mph (SE)    
Max Wind Speed 32 mph    
Max Gust Speed 45 mph    
Visibility 10 miles    
Events Rain    
Averages and records for this station are not official NWS values.
T = Trace of Precipitation, MM = Missing Value Source: NWS Daily Summary

Daily Weather History Graph

Daily Weather History Graph

Search for Another Location

Airport or City:

Trip Planner

Search our weather history database for the weather conditions in past years. The results will help you decide how hot, cold, wet, or windy it might be!

Date:

Astronomy

Feb. 14, 2014 Rise Set
Actual Time 7:12 AM AKST 4:50 PM AKST
Civil Twilight 6:33 AM AKST 5:29 PM AKST
Nautical Twilight 5:51 AM AKST 6:12 PM AKST
Astronomical Twilight 5:08 AM AKST 6:54 PM AKST
Moon 5:11 PM AKST (2/14) 6:36 AM AKST (2/14)
Length of Visible Light 10h 55m
Length of Day
9h 38m
Full, 100% of the Moon is Illuminated
Feb 14
Full
Feb 14
Full
Feb 22
Last Quarter
Feb 28
New
Mar 8
First Quarter

Hourly Weather History & Observations

Time (AKST) Temp. Windchill Dew Point Humidity Pressure Visibility Wind Dir Wind Speed Gust Speed Precip Events Conditions
12:41 AM 37.4 °F 24.6 °F 35.6 °F 93% 29.15 in 10.0 mi SE 32.2 mph 44.9 mph 0.03 in Rain Light Rain
12:53 AM 37.9 °F 25.7 °F 36.0 °F 93% 29.15 in 10.0 mi SE 29.9 mph 39.1 mph 0.03 in Rain Light Rain
1:16 AM 37.4 °F 26.1 °F 35.6 °F 93% 29.14 in 8.0 mi SE 24.2 mph 36.8 mph 0.01 in Rain Light Rain
1:53 AM 37.0 °F 26.4 °F 35.1 °F 93% 29.11 in 8.0 mi SSE 20.7 mph 28.8 mph 0.06 in Rain Light Rain
2:19 AM 37.4 °F 27.5 °F 35.6 °F 93% 29.06 in 10.0 mi SSE 18.4 mph 26.5 mph 0.02 in Rain Light Rain
3:04 AM 37.4 °F 27.8 °F 33.8 °F 87% 29.04 in 10.0 mi SE 17.3 mph 29.9 mph 0.00 in Rain Light Rain
3:53 AM 37.0 °F 26.2 °F 34.0 °F 89% 29.03 in 6.0 mi SSE 21.9 mph 32.2 mph 0.04 in Rain Light Rain
4:53 AM 37.0 °F 27.0 °F 34.0 °F 89% 29.05 in 10.0 mi SE 18.4 mph 24.2 mph 0.05 in Rain Light Rain
5:53 AM 37.9 °F 26.1 °F 36.0 °F 93% 29.02 in 10.0 mi SE 27.6 mph 40.3 mph 0.01 in   Overcast
6:05 AM 37.4 °F 25.4 °F 37.4 °F 100% 29.02 in 10.0 mi SE 27.6 mph 35.7 mph N/A   Overcast
6:53 AM 37.4 °F 26.9 °F 37.4 °F 100% 29.02 in 8.0 mi SSE 20.7 mph 28.8 mph N/A Rain Light Rain
7:53 AM 35.6 °F 28.0 °F 35.6 °F 100% 29.04 in 9.0 mi South 10.4 mph - N/A Rain Light Rain
8:53 AM 36.0 °F 30.3 °F 34.0 °F 93% 29.11 in 10.0 mi Variable 6.9 mph - 0.01 in   Overcast
9:53 AM 36.0 °F 31.1 °F 34.0 °F 93% 29.21 in 10.0 mi NNW 5.8 mph - 0.04 in Rain Light Rain
10:53 AM 37.9 °F - 35.1 °F 89% 29.31 in 10.0 mi Calm Calm - 0.01 in   Overcast
11:53 AM 39.0 °F 34.8 °F 34.0 °F 82% 29.38 in 10.0 mi ESE 5.8 mph - 0.00 in   Overcast
12:53 PM 39.0 °F 36.8 °F 34.0 °F 82% 29.44 in 10.0 mi SSE 3.5 mph - N/A   Mostly Cloudy
1:53 PM 37.9 °F 35.5 °F 32.0 °F 79% 29.47 in 10.0 mi ESE 3.5 mph - N/A   Scattered Clouds
2:53 PM 37.9 °F 30.0 °F 33.1 °F 83% 29.51 in 10.0 mi ESE 12.7 mph - N/A   Scattered Clouds
3:53 PM 37.0 °F 31.0 °F 33.1 °F 86% 29.53 in 10.0 mi SE 8.1 mph - N/A   Overcast
4:53 PM 37.9 °F 30.0 °F 33.1 °F 83% 29.55 in 10.0 mi SE 12.7 mph - 0.00 in   Overcast
5:53 PM 37.9 °F 30.5 °F 34.0 °F 86% 29.55 in 10.0 mi SSE 11.5 mph - 0.00 in Rain Light Rain
6:53 PM 39.0 °F 29.0 °F 33.1 °F 79% 29.55 in 10.0 mi SE 20.7 mph 26.5 mph 0.00 in   Overcast
6:58 PM 39.2 °F 30.2 °F 33.8 °F 81% 29.54 in 10.0 mi SE 17.3 mph 26.5 mph 0.00 in Rain Light Rain
7:53 PM 39.0 °F 29.9 °F 34.0 °F 82% 29.54 in 10.0 mi SSE 17.3 mph - 0.00 in   Overcast
8:00 PM 39.2 °F 30.2 °F 33.8 °F 81% 29.53 in 10.0 mi SSE 17.3 mph - N/A   Overcast
8:53 PM 37.9 °F 27.6 °F 35.1 °F 89% 29.54 in 10.0 mi SE 20.7 mph 27.6 mph 0.00 in Rain Light Rain
9:53 PM 39.0 °F 28.8 °F 34.0 °F 82% 29.53 in 10.0 mi SE 21.9 mph - 0.00 in   Overcast
10:53 PM 39.0 °F 28.3 °F 35.1 °F 86% 29.52 in 10.0 mi SE 24.2 mph 31.1 mph 0.00 in Rain Light Rain
11:53 PM 37.9 °F 25.7 °F 35.1 °F 89% 29.52 in 10.0 mi SE 29.9 mph 38.0 mph 0.04 in Rain Light Rain